Regional Weather Roundup
Issued by NWS Cleveland, OH

Home | Current Version | Previous Version | Text Only | Print | Product List | Glossary Off
Versions: 1 2 3 4 5 6 7 8 9 10 11 12 13 14 15 16 17 18 19 20 21 22 23 24 25 26 27 28 29 30 31 32 33 34 35 36 37 38 39 40 41 42 43 44 45 46 47 48 49 50

000
ASUS41 KCLE 041210
RWRCLE
OHIO REGIONAL WEATHER ROUNDUP
NATIONAL WEATHER SERVICE WILMINGTON, OH
800 AM EDT TUE AUG 04 2015

NOTE: "FAIR" INDICATES FEW OR NO CLOUDS BELOW 12,000 FEET WITH NO
SIGNIFICANT WEATHER AND/OR OBSTRUCTIONS TO VISIBILITY.

OHZ001>008-015>018-024>027-034-035-043-044-041300-
   NORTHWEST OHIO

CITY           SKY/WX    TMP DP  RH WIND       PRES   REMARKS
DEFIANCE       SUNNY     62  55  77 S5        29.96R
FINDLAY        SUNNY     61  56  83 S3        29.96R
TOLEDO EXPRESS SUNNY     62  53  72 SW7       29.94R
TOLEDO EXEC    SUNNY     62  54  74 SW7       29.95R
LIMA           SUNNY     62  54  74 S5        29.97R
$$

OHZ009>014-019>023-028>033-038-089-041300-
   NORTHEAST OHIO

CITY           SKY/WX    TMP DP  RH WIND       PRES   REMARKS
CLE-HOPKINS    SUNNY     63  54  72 SW7       29.96R
CLE-LAKEFRONT  SUNNY     67  56  67 S8        29.93R
CUY CO. ARPT   SUNNY     66  59  77 SW7       29.94R
LORAIN-ELYRIA  SUNNY     62  55  77 SW6       29.96R
ASHTABULA      SUNNY     64  61  90 W3        29.94R
AKRON-CANTON   SUNNY     63  53  70 CALM      29.97R
WOOSTER        SUNNY     61  55  81 CALM      29.98R
MANSFIELD      SUNNY     61  55  81 S5        29.98R
YOUNGSTOWN     MOSUNNY   62  57  83 SW6       29.96R
$$

OHZ042-051>053-060>062-070>072-077>081-041300-
  SOUTHWEST OHIO

CITY           SKY/WX    TMP DP  RH WIND       PRES   REMARKS
CINC-COVINGTON MOSUNNY   69  66  90 SE3       29.97S
CINC-LUNKEN    FOG       66  66 100 CALM      29.98R VSB<1/4
HAMILTON       SUNNY     64  63  96 CALM      29.99R
DAYTON         SUNNY     66  60  81 CALM      29.99R
WRIGHT-PAT AFB SUNNY     64  64  98 CALM      29.98R
DAYTON GENERAL SUNNY     66  59  78 CALM      29.98R
WILMINGTON     SUNNY     65  59  81 SE5       29.98S
$$

OHZ036-037-039>041-045>050-054>059-063>069-073>076-082>088-041300-
  CENTRAL AND SOUTHEAST OHIO

CITY           SKY/WX    TMP DP  RH WIND       PRES   REMARKS
COLUMBUS       MOSUNNY   65  61  87 CALM      29.98R
OSU AIRPORT    SUNNY     65  60  84 CALM      29.98R
BOLTON FIELD   MOSUNNY   63  61  94 CALM      29.99S
RICKENBACK AFB MOSUNNY   63  61  94 S3        29.98S
NEWARK         SUNNY     63  59  87 CALM      29.98R
MARION         SUNNY     61  56  83 CALM      29.98R
LANCASTER      SUNNY     64  61  90 CALM      29.99R
ZANESVILLE     MOSUNNY   63  58  83 CALM      29.99R
NEW PHILLY     SUNNY     61  58  90 CALM      29.98S
$$



USA.gov is the U.S. government's official web portal to all federal, state and local government web resources and services.